Погода в Гуаруже

Бразилия     23°59′23″S   46°15′38″W
темп.,
°C
ветер,
м/с
пор.,
м/с
влажн.,
%
обл.,
%
осадки,
мм/ч
давл.,
гПа
погр.,
м
22 октября, пт
пт2200:00+19всв458334 0.3 1016528
03:00+19св22847 0.3 1014365
06:00+18ссв22840 0.0 1015215
09:00+20ююв21750 0.0 1016387
12:00+21ююв33731 0.0 1015483
15:00+22вюв337215 0.0 1013748
18:00+21в45796 0.0 1013488
21:00+20всв348310 0.0 1014424
23 октября, сб
сб2300:00+19ссв22840 0.0 1013201
03:00+19св12810 0.0 1012190
06:00+19св11790 0.0 1013144
09:00+22вюв22710 0.0 1013319
12:00+22вюв55751 0.0 1011297
15:00+23вюв45790 0.0 1007264
18:00+22в338690 0.0 1006106
21:00+22всв228483 0.0 100544
24 октября, вс
вс2400:00+22с1177100 0.0 100514
03:00+21зюз91290100 0.0 1006346
06:00+21ссз2384100 0.3 1009106
09:00+23св51177100 1.4 1007311
12:00+24юз2376100 0.0 1010145
15:00+25зюз2471100 0.1 1010435
18:00+23ю5786100 0.1 1012166
21:00+21ю5794100 3.9 1016517
25 октября, пн
пн2500:00+21ю2394100 3.4 1017231
03:00+20ююв7893100 11.8 1016600
06:00+20юв4588100 3.5 1018492
09:00+20юв3486100 4.4 1020459
12:00+21ююв3386100 0.3 1019467
15:00+20юв3488100 0.9 1017447
18:00+20в4588100 0.7 1018440
21:00+21в4590100 1.3 1019384
26 октября, вт
вт2600:00+21вюв3492100 0.6 1019362
03:00+21в3493100 1.0 1017305
06:00+21в3393100 0.4 1018266
09:00+22в2290100 0.8 1019281
12:00+21вюв2394100 1.1 1019208
15:00+22вюв239596 2.6 1017279
18:00+22в6796100 2.8 1018403
21:00+22в5596100 3.1 1019255